Regional Weather Roundup
Issued by NWS

Home | Current Version | Previous Version | Text Only | Print | Product List | Glossary On
Versions: 1 2 3 4 5 6 7 8 9 10 11 12 13 14 15 16 17 18 19 20 21 22 23 24 25 26 27 28 29 30 31 32 33 34 35 36 37 38 39 40 41 42 43 44 45 46 47 48 49 50
000
ASUS43 KBIS 051110
RWRND

NORTH DAKOTA REGIONAL WEATHER ROUNDUP
NATIONAL WEATHER SERVICE BISMARCK ND
600 AM CDT WED AUG 05 2015

NOTE: "FAIR" INDICATES FEW OR NO CLOUDS BELOW 12,000 FEET WITH NO
SIGNIFICANT WEATHER AND/OR OBSTRUCTIONS TO VISIBILITY.


NDZ001>003-009>011-017-051200-
NORTHWEST NORTH DAKOTA

CITY           SKY/WX    TMP DP  RH WIND       PRES   REMARKS
WILLISTON      CLOUDY    68  61  78 S3        29.90R
MINOT          CLOUDY    63  56  78 SE9       29.92S
MINOT AFB      CLOUDY    62  59  91 SE14      29.90F
$$

NDZ018>021-031>035-040>046-051200-
SOUTHWEST NORTH DAKOTA

CITY           SKY/WX    TMP DP  RH WIND       PRES   REMARKS
BISMARCK       MOCLDY    62  58  86 E5        29.99R
DICKINSON      MOCLDY    61  59  93 S6        29.93F
GARRISON         N/A     65  61  87 SE9       29.93F
HETTINGER ARPT MOCLDY    64  60  87 SE6       29.96S THUNDER
$$

NDZ004>008-012>016-024-026-027-054-051200-
NORTHEAST NORTH DAKOTA

CITY           SKY/WX    TMP DP  RH WIND       PRES   REMARKS
GRAND FORKS    FAIR      55  51  86 S6        30.02S
GRND FRKS AFB  PTCLDY    53  51  91 S3        30.02F
DEVILS LAKE    CLOUDY    61  52  72 SE8       30.00S
$$

NDZ022-023-025-028>030-036>039-047>053-051200-
SOUTHEAST NORTH DAKOTA

CITY           SKY/WX    TMP DP  RH WIND       PRES   REMARKS
FARGO          MOCLDY    59  54  83 SE9       30.02F
JAMESTOWN      MOCLDY    58  53  84 SE6       30.02R
$$



USA.gov is the U.S. government's official web portal to all federal, state and local government web resources and services.